TimeCST,TemperatureF,Dew PointF,Humidity,Sea Level PressureIn,VisibilityMPH,Wind Direction,Wind SpeedMPH,Gust SpeedMPH,PrecipitationIn,Events,Conditions,WindDirDegrees,DateUTC
12:55 AM,3.0,-2.0,80,30.05,10.0,Calm,Calm,-,N/A,,Clear,0,2012-12-12 06:55:00
1:55 AM,3.0,-2.0,80,30.06,10.0,Calm,Calm,-,N/A,,Clear,0,2012-12-12 07:55:00
2:55 AM,3.0,-2.0,80,30.06,10.0,Calm,Calm,-,N/A,,Clear,0,2012-12-12 08:55:00
3:55 AM,3.9,-0.0,84,30.06,10.0,South,3.5,-,N/A,,Clear,170,2012-12-12 09:55:00
4:55 AM,7.0,3.0,84,30.06,10.0,SE,3.5,-,N/A,,Overcast,130,2012-12-12 10:55:00
5:55 AM,9.0,3.9,80,30.05,10.0,SE,6.9,-,N/A,,Overcast,130,2012-12-12 11:55:00
6:55 AM,9.0,5.0,84,30.04,10.0,SE,9.2,-,N/A,,Scattered Clouds,130,2012-12-12 12:55:00
7:55 AM,10.0,6.1,84,30.02,7.0,ESE,10.4,-,N/A,,Scattered Clouds,110,2012-12-12 13:55:00
8:39 AM,12.2,10.4,92,29.92,4.0,ESE,12.7,-,0.00,Snow,Light Snow,120,2012-12-12 14:39:00
8:55 AM,14.0,10.9,88,30.02,4.0,ESE,12.7,-,0.00,Snow,Light Snow,120,2012-12-12 14:55:00
9:55 AM,17.1,14.0,88,30.01,3.0,East,10.4,-,0.00,Snow,Light Snow,100,2012-12-12 15:55:00
10:55 AM,19.9,16.0,85,29.99,7.0,ESE,13.8,24.2,0.00,Snow,Light Snow,120,2012-12-12 16:55:00
11:55 AM,21.9,17.1,82,29.97,9.0,ESE,11.5,-,0.00,,Overcast,120,2012-12-12 17:55:00
12:45 PM,23.0,17.6,80,29.85,10.0,East,10.4,-,N/A,,Overcast,100,2012-12-12 18:45:00
12:55 PM,23.0,18.0,81,29.94,10.0,ESE,9.2,-,N/A,,Overcast,110,2012-12-12 18:55:00
1:29 PM,24.8,17.6,74,29.84,10.0,ESE,12.7,-,N/A,,Overcast,110,2012-12-12 19:29:00
1:47 PM,24.8,17.6,74,29.83,10.0,ESE,15.0,24.2,N/A,,Overcast,110,2012-12-12 19:47:00
1:55 PM,24.1,18.0,77,29.93,10.0,East,13.8,24.2,N/A,,Overcast,100,2012-12-12 19:55:00
2:55 PM,25.0,19.0,78,29.92,10.0,SE,10.4,-,N/A,,Overcast,130,2012-12-12 20:55:00
3:55 PM,25.0,21.0,85,29.91,9.0,ESE,11.5,-,N/A,,Overcast,120,2012-12-12 21:55:00
4:55 PM,27.0,21.9,81,29.90,10.0,SE,9.2,-,N/A,,Mostly Cloudy,140,2012-12-12 22:55:00
5:55 PM,28.0,23.0,81,29.90,10.0,ESE,5.8,-,0.01,,Overcast,120,2012-12-12 23:55:00
6:55 PM,28.0,23.0,81,29.92,10.0,Calm,Calm,-,N/A,,Overcast,0,2012-12-13 00:55:00
7:55 PM,27.0,23.0,85,29.92,10.0,SSE,3.5,-,N/A,,Overcast,150,2012-12-13 01:55:00
8:55 PM,28.9,23.0,78,29.93,10.0,South,3.5,-,N/A,,Overcast,190,2012-12-13 02:55:00
9:55 PM,30.0,23.0,75,29.93,10.0,SSW,4.6,-,N/A,,Overcast,210,2012-12-13 03:55:00
10:55 PM,28.9,23.0,78,29.94,10.0,WSW,5.8,-,N/A,,Overcast,250,2012-12-13 04:55:00
11:55 PM,28.9,23.0,78,29.94,10.0,West,3.5,-,N/A,,Overcast,270,2012-12-13 05:55:00